Regional Weather Roundup
Issued by NWS Cleveland, OH

Home | Current Version | Previous Version | Graphics & Text | Print | Product List | Glossary On
Versions: 1 2 3 4 5 6 7 8 9 10 11 12 13 14 15 16 17 18 19 20 21 22 23 24 25 26 27 28 29 30 31 32 33 34 35 36 37 38 39 40 41 42 43 44 45 46 47 48 49 50
658
ASUS41 KCLE 270700
RWRCLE
OHIO REGIONAL WEATHER ROUNDUP
NATIONAL WEATHER SERVICE WILMINGTON, OH
300 AM EDT TUE JUN 27 2017

NOTE: "FAIR" INDICATES FEW OR NO CLOUDS BELOW 12,000 FEET WITH NO
SIGNIFICANT WEATHER AND/OR OBSTRUCTIONS TO VISIBILITY.

OHZ001>008-015>018-024>027-034-035-043-044-270800-
   NORTHWEST OHIO

CITY           SKY/WX    TMP DP  RH WIND       PRES   REMARKS
DEFIANCE       FAIR      53  45  74 VRB3      30.05S
FINDLAY        FAIR      54  50  86 W7        30.04R
TOLEDO EXPRESS FAIR      51  48  89 W7        30.03R
TOLEDO EXEC    FAIR      53  47  79 W9        30.03S
LIMA           FAIR      55  51  86 NW7       30.06R
$$

OHZ009>014-019>023-028>033-038-089-270800-
   NORTHEAST OHIO

CITY           SKY/WX    TMP DP  RH WIND       PRES   REMARKS
CLE-HOPKINS    MOCLDY    56  51  84 SW8       30.01S
CLE-LAKEFRONT  CLOUDY    57  49  74 S12       29.97F
CUY CO. ARPT   NOT AVBL
LORAIN-ELYRIA  FAIR      53  47  79 W8        30.01S
ASHTABULA      CLOUDY    53  52  96 SW7       30.00R
AKRON-CANTON   MOCLDY    56  48  74 SW7       30.01F
WOOSTER        NOT AVBL
MANSFIELD      FAIR      54  49  83 W6        30.03S
YOUNGSTOWN     MOCLDY    51  50  96 W3        30.00S
$$

OHZ042-051>053-060>062-070>072-077>081-270800-
  SOUTHWEST OHIO

CITY           SKY/WX    TMP DP  RH WIND       PRES   REMARKS
CINC-COVINGTON FAIR      56  50  80 N6        30.10R
CINC-LUNKEN    FAIR      55  52  89 CALM      30.10S
HAMILTON       FAIR      52  51  97 CALM      30.10S
DAYTON         NOT AVBL
WRIGHT-PAT AFB CLEAR     56  51  83 S5        30.08R
DAYTON GENERAL FAIR      57  49  74 SW6       30.08S
WILMINGTON     FAIR      52  52 100 SW5       30.08S
$$

OHZ036-037-039>041-045>050-054>059-063>069-073>076-082>088-270800-
  CENTRAL AND SOUTHEAST OHIO

CITY           SKY/WX    TMP DP  RH WIND       PRES   REMARKS
COLUMBUS       FAIR      56  53  90 W6        30.05S
OSU AIRPORT    FAIR      53  50  89 W6        30.05F
BOLTON FIELD   NOT AVBL
RICKENBACK AFB NOT AVBL
NEWARK         FAIR      55  52  89 CALM      30.05R
MARION         FAIR      56  48  74 W8        30.05R
LANCASTER      CLOUDY    55  54  96 CALM      30.06S
ZANESVILLE     CLOUDY    55  52  89 SW3       30.05S
NEW PHILLY     CLOUDY    55  51  86 SE3       30.03S
$$




USA.gov is the U.S. government's official web portal to all federal, state and local government web resources and services.